America's International Challenge - Group Training 30 Miles

Station: 30 Miles - T Race

Distance: 30 Miles

Release: 09-Oct-2018 08:00

Weather Release:    Arrival:

Wind at Release:     Wind at Arrival:

Temp at Release: °    Temp at Arrival: °

Lofts: 70

Birds: 282

Clocked: 285

Good Luck to Everyone!
Drops Pos Breeder Pigeon Name Color Sex Ent Arrival Speed To Win Eligible A1000AOC
1 Baldwin & Tilson - NC 8143-AU18-TENT 4028 BB C 1 08:45:18.60 1165.306 00:00:00 Lost
2 Barry / Rishier - NJ 0798-AU18-SKI RED H 1 08:45:38.50 1156.838 00:00:20 Yes
3 Greek Connection - SC 0817-AU18-GREE LUDO GRIZ H 1 08:45:38.80 1156.711 00:00:20 Lost
4 George T Lim - FL 2004-AU18-VITA BB H 1 08:45:39.40 1156.458 00:00:21 Missing
5 111 Loft 5 - MD 1321-IF18-WELL BC H 1 08:45:49.00 1152.419 00:00:30 Missing
6 Pleasant Task Farm - PA 0827-AU18-PTF 579x11 BBWF H 1 08:45:51.10 1151.539 00:00:33 Lost
7 Gold Coast Loft - CA 1829-AU18-GOLD BB H 1 08:45:56.10 1149.450 00:00:38 Yes
8 Ken Easley & Son Racing - NM 8830-AU18-EASL Rocketeer BB H 1 08:45:56.70 1149.200 00:00:38 Missing
9 Richard Callahan - MO 0358-AU18-AA DC H 1 08:45:58.00 1148.658 00:00:39 Yes
10 385 Connection - SC 80822-AU18-SCO 3207 & 365 BBWF H 1 08:46:31.00 1135.077 00:01:12 Missing
11 385 Connection - SC 80003-AU18-SCO 75 & 60013 BB H 2 08:46:33.40 1134.102 00:01:15 Yes
12 Ed Ottusch - CT 11798-AU18-ARPU BC H 1 08:46:35.40 1133.290 00:01:17 Missing
13 Liqing Ni Loft - NY 4524-AU18-ARPU Yang524🦄🦄🦄 DCWF H 1 08:46:36.20 1132.966 00:01:18 Missing
14 Barry-Shawnie-Tony Agius - MI 0794-AU18-SKI RWF H 1 08:46:36.50 1132.845 00:01:18 Missing
15 A D L Loft - IL 1836-AU18-ADL BB H 1 08:46:36.80 1132.723 00:01:18 Yes
16 Gold Coast Loft - CA 1805-AU18-GOLD BB H 2 08:46:37.30 1132.521 00:01:19 Missing
17 Shawnie Murphy - MI 30028-IF18-E BB H 1 08:46:37.70 1132.359 00:01:19 Lost
17 A D L Loft - IL 1826-AU18-ADL BB H 2 08:46:37.70 1132.359 00:01:19 Missing
19 L S U Loft - LA 0108-AU18-LSU BC H 1 08:46:38.30 1132.116 00:01:20 Yes
20 Carter Mayotte - NE 0360-AU18-CART BB H 1 08:46:38.60 1131.995 00:01:20 Yes
21 M & Y Connection - MI 0149-AU18-MSYP 10 X 92 BBWF H 1 08:46:38.70 1131.954 00:01:20 Lost
21 Morningside Racing Loft - TX 10170-AU18-MSRL 7052 X 7043 PEN H 1 08:46:38.70 1131.954 00:01:20 Yes
23 L S U Loft - LA 0182-AU18-LSU BB H 2 08:46:39.00 1131.833 00:01:20 Yes
24 111 Loft 5 - MD 1323-IF18-WELL BBWF H 2 08:46:39.10 1131.792 00:01:21 Lost
25 King Brand Syndicate - IA 0052-AU18-BLOC BBWF H 1 08:46:39.70 1131.550 00:01:21 Missing
26 Tim Macken - MN 0822-AU18-MACK GRIZ H 1 08:46:40.60 1131.186 00:01:22 Missing
26 Drama Queen Loft - TX 1048-AU18-GCI BCWF H 1 08:46:40.60 1131.186 00:01:22 Missing
28 L S U Loft - LA 0181-AU18-LSU BB H 3 08:46:40.70 1131.146 00:01:22 Missing
29 R M C Loft - CA 5021-AU18-RMC BB H 1 08:46:41.30 1130.904 00:01:23 Missing
30 Steven Loft - TX 4166-AU18-ARPU BBWF H 1 08:46:41.80 1130.702 00:01:23 Missing
31 King Brand Syndicate - IA 0100-AU18-BLOC BCWF H 2 08:46:42.40 1130.460 00:01:24 Missing
32 Guo Fu Loft - DC 24111-AU18-ARPU DC H 1 08:46:42.70 1130.339 00:01:24 Lost
32 Steven Loft - TX 4131-AU18-ARPU BB H 2 08:46:42.70 1130.339 00:01:24 Yes
34 A D L Loft - IL 1800-AU18-ADL BB H 3 08:46:43.00 1130.218 00:01:24 Missing
35 David Knightes - VT 2297-AU18-CVR BLK H 1 08:46:43.50 1130.016 00:01:25 Missing
36 Steven Loft - TX 2116-AU18-ARPU SILV C 3 08:46:44.40 1129.653 00:01:26 Yes
37 Baldwin & Tilson - NC 8150-AU18-TENT 6304 BB C 2 08:46:45.20 1129.331 00:01:27 Yes
37 Tri State - CT 1838-AU18-MAS BB H 1 08:46:45.20 1129.331 00:01:27 Missing
39 A D L Loft - IL 1852-AU18-ADL BB H 4 08:46:45.80 1129.090 00:01:27 Lost
40 Ed Ottusch - CT 11796-AU18-ARPU BB H 2 08:46:46.50 1128.808 00:01:28 Missing
41 Akzona / Crescendo - CO 2402-AU18-VK BCSP H 1 08:46:46.80 1128.687 00:01:28 Lost
42 Greek Connection - SC 0655-AU18-GREE 565 BBWF H 2 08:46:47.20 1128.527 00:01:29 Missing
43 Racine Jun Xiao - WI 1176-AU18-RAC BC H 1 08:46:47.70 1128.326 00:01:29 Missing
44 Chris Mellidis - QC 0874-AU18-GREE BCWF H 1 08:46:48.10 1128.165 00:01:30 Yes
45 R M C Loft - CA 5095-AU18-RMC BB H 2 08:46:48.60 1127.964 00:01:30 Missing
46 Gold Coast Loft - CA 1810-AU18-GOLD BB H 3 08:46:49.00 1127.803 00:01:30 Missing
47 Lonestar Loft - TX 0418-AU18-DEN BC H 1 08:46:49.30 1127.683 00:01:31 Missing
48 Baldwin & Tilson - NC 8149-AU18-TENT 6304 BBWF C 3 08:46:49.80 1127.482 00:01:31 Missing
49 L S U Loft - LA 0151-AU18-LSU RED H 4 08:46:50.20 1127.322 00:01:32 Missing
49 Racine Jun Xiao - WI 1172-AU18-RAC BB H 2 08:46:50.20 1127.322 00:01:32 Missing
51 Da-Dong - WI 0823-AU18-RAC 330-392 BBP H 1 08:46:50.60 1127.161 00:01:32 Yes
52 Mark & Johnny - ID 0706-AU18-IDA BB H 1 08:46:51.10 1126.961 00:01:33 Missing
52 Zhen Yuan Guo - SC 0727-AU18-GUO BB H 1 08:46:51.10 1126.961 00:01:33 Missing
54 Hmong Syndicate - MN 0010-AU18-HMON LUCKY STAR BC H 1 08:46:51.80 1126.680 00:01:33 Lost
55 Tao Loft 2 - FL 1808-IF18-TAO BB H 1 08:46:52.30 1126.480 00:01:34 Missing
56 Shawnie & Il Volo - MI 34726-IF18-E BC H 1 08:46:52.80 1126.280 00:01:34 Missing
57 Bar Flys - SC 0739-AU18-GREE Fire Ball BB H 1 08:46:53.60 1125.960 00:01:35 Missing
58 Baldwin & Tilson - NC 8159-AU18-TENT 1107 BB C 4 08:46:53.90 1125.840 00:01:35 Missing
58 Shawnie Murphy - MI 30031-IF18-E BC H 2 08:46:53.90 1125.840 00:01:35 Yes
60 Watkins Loft - NC 18307-AU18-FAY RC H 1 08:46:54.60 1125.560 00:01:36 Missing
60 Hugh Eckerich - SC 8283-CU18-BORD BC H 1 08:46:54.60 1125.560 00:01:36 Missing
62 Sam A Miller - KY 4144-AU18-FOYS BBPB H 1 08:46:56.00 1125.000 00:01:37 Missing
63 Riverside Loft - NJ 0326-IF18-WVC BB H 1 08:46:56.70 1124.720 00:01:38 Missing
64 Mike Bator - NY 1661-IF18-BUFF BBPB H 1 08:46:57.00 1124.601 00:01:38 Missing
65 George T Lim - FL 2014-AU18-VITA BB H 2 08:46:57.30 1124.481 00:01:39 Missing
66 John Karnofel - CA 0836-AU18-KFL Salinas Dream BB H 1 08:46:57.80 1124.281 00:01:39 Missing
67 M & Y Connection - MI 0150-AU18-MSYP 10 X 92 BB H 2 08:46:57.90 1124.241 00:01:39 Missing
68 Long And Burt - OH 0119-AU18-COV BBWF H 1 08:46:58.50 1124.002 00:01:40 Missing
69 Nanez Family Lofts - WI 8343-AU18-NANE SILV H 1 08:46:58.90 1123.843 00:01:40 Missing
69 Tao Loft 2 - FL 26658-AU18-ARPU BB H 2 08:46:58.90 1123.843 00:01:40 Yes
71 Shawnie & Il Volo - MI 34727-IF18-E BC H 2 08:47:00.10 1123.364 00:01:42 Missing
72 Lonestar Loft - TX 0427-AU18-DEN DC H 2 08:47:01.20 1122.926 00:01:43 Missing
73 L S U Loft - LA 0111-AU18-LSU DC H 5 08:47:01.50 1122.807 00:01:43 Lost
74 Riverside Loft - NJ 0327-IF18-WVC BCH H 2 08:47:02.00 1122.608 00:01:43 Missing
75 Bar Flys - SC 0733-AU18-GREE Drambuie BB H 2 08:47:02.40 1122.449 00:01:44 Lost
76 Gold Coast Loft - CA 1818-AU18-GOLD BB H 4 08:47:02.90 1122.250 00:01:44 Yes
77 Stevens Family Loft-The Original - UT 0006-IF18-MTFL Ikonic BBWF H 1 08:47:03.60 1121.972 00:01:45 Yes
78 John Karnofel - CA 0830-AU18-KFL San Francisco Girl BBWF H 2 08:47:04.30 1121.694 00:01:46 Yes
79 Akzona / Crescendo - CO 2404-AU18-VK BBWF H 2 08:47:05.00 1121.416 00:01:46 Missing
80 Jeff Murray - WI 0101-AU18-RRR BB H 1 08:47:05.70 1121.138 00:01:47 Missing
81 John Karnofel - CA 0837-AU18-KFL San Jose Beauty BB H 3 08:47:06.30 1120.900 00:01:48 Missing
82 Donnelly / Emerson - FL 0389-AU18-VK BBWF H 1 08:47:06.70 1120.742 00:01:48 Lost
82 Tao Loft 2 - FL 1806-IF18-TAO BB H 3 08:47:06.70 1120.742 00:01:48 Missing
84 Y Mtn Loft - TN 0307-AU18-TFC BBPB H 1 08:47:07.20 1120.543 00:01:49 Lost
85 Cajun Connection - LA 0801-AU18-FARM BC H 1 08:47:07.60 1120.385 00:01:49 Missing
86 Nick & Barry - NC 1022-AU18-DBS BC H 1 08:47:07.90 1120.266 00:01:49 Lost
86 Akzona / Crescendo - CO 2412-AU18-VK BB H 3 08:47:07.90 1120.266 00:01:49 Missing
88 Nanez Family Lofts - WI 8283-AU18-NANE SILV H 2 08:47:08.70 1119.949 00:01:50 Missing
89 Nick & Barry - NC 1023-AU18-DBS BCWF H 2 08:47:09.20 1119.751 00:01:51 Missing
90 Guo Fu Loft - DC 26681-AU18-ARPU BB H 2 08:47:09.60 1119.593 00:01:51 Missing
91 Sunshine Loft 2 - SC 0046-AU18-PAK B U L L E T . Sr BBWF H 1 08:47:10.10 1119.395 00:01:52 Missing
92 Lonestar Loft - TX 0439-AU18-DEN DC H 3 08:47:11.20 1118.960 00:01:53 Missing
93 Greek Connection - SC 0622-AU18-GREE bro YPX61 BB H 3 08:47:11.60 1118.802 00:01:53 Missing
94 Jeff Murray - WI 0134-AU18-RRR BC H 2 08:47:12.70 1118.368 00:01:54 Yes
95 David Knightes - VT 2286-AU18-CVR BPWF H 2 08:47:13.20 1118.170 00:01:55 Lost
96 Greek Connection - SC 0648-AU18-GREE bro YPX61 GRIZ H 4 08:47:14.50 1117.657 00:01:56 Missing
97 Highland Loft - NY 18091-AU18-DZ BB H 1 08:47:15.20 1117.381 00:01:57 Missing
98 Tim Macken - MN 0811-AU18-MACK GRIZ H 2 08:47:15.90 1117.106 00:01:57 Missing
99 L S U Loft - LA 0121-AU18-LSU GRIZ H 6 08:47:17.90 1116.318 00:01:59 Missing
100 Steven Loft - TX 2118-AU18-ARPU BB H 4 08:47:18.30 1116.161 00:02:00 Missing

There are 62 bird records

Note: These Race Results are unofficial and subject to change until verified by the Race Committee and declared final.

America's International Challenge © 2014 ** Professional Pigeon Racing Tournament  ** Telephone:732-239-3623

HOME                RACE PAYOUT          RULES & INFORMATION         FINAL RESULTS            PHOTOS          CONTACT US
ENTRIES      TRAINING RESULTS        LIVE RESULTS        INVENTORY UPDATE        NEWS & UPDATE

 

Click for Forecast for 29388 from weatherUSA